Location: Barcelona
(41.3829°N, 2.1774°E)
Time: 13:48:37
(UTC+00:00)

ISS - Pass Details

Date: 15 July 2024
Orbit: 410 x 424 km, 51.6° (Epoch: 14 July)

Event Time Altitude Azimuth Distance (km) Brightness Sun altitude
Rises 20:10:33 0° 272° (W) 2,336 1.0 -8.2°
Reaches altitude 10° 20:12:58 10° 288° (WNW) 1,476 0.3 -8.6°
Maximum altitude 20:15:36 21° 341° (NNW) 972 -1.1 -9.0°
Drops below altitude 10° 20:18:14 10° 34° (NE) 1,479 -0.9 -9.3°
Sets 20:20:39 0° 51° (NE) 2,344 -0.1 -9.7°
